Location: Drocourt
(49.0571°N, 1.7669°E)
Time: 19:56:40
(UTC+00:00)

Cosmos 2237 Rocket - Visible Passes

Search period start: 02 December 2024 00:00
Search period end: 12 December 2024 00:00
Orbit: 833 x 850 km, 71.0° (Epoch: 01 December)

Date Brightness Start Highest point End Pass type
(mag) Time Alt. Az. Time Alt. Az. Time Alt. Az.
02 Dec 4.7 03:00:11 15° NE 03:00:11 15° NE 03:01:16 10° NE visible
02 Dec 3.3 04:42:01 31° N 04:42:01 31° N 04:45:26 10° NNE visible
02 Dec 4.0 06:23:51 11° NW 06:25:47 13° NNW 06:28:12 10° N visible
03 Dec 5.0 02:45:50 11° NE 02:45:50 11° NE 02:46:07 10° NE visible
03 Dec 3.6 04:27:40 26° N 04:27:40 26° N 04:30:20 10° NNE visible
03 Dec 4.0 06:09:29 12° NW 06:10:36 13° NNW 06:13:09 10° N visible
04 Dec 4.0 04:13:14 21° N 04:13:14 21° N 04:15:15 10° NNE visible
04 Dec 4.0 05:55:04 13° NNW 05:55:25 13° NNW 05:58:07 10° N visible
05 Dec 4.3 03:58:45 17° NNE 03:58:45 17° NNE 04:00:09 10° NNE visible
05 Dec 4.0 05:40:34 14° NNW 05:40:34 14° NNW 05:43:04 10° N visible
06 Dec 4.5 03:44:13 14° NNE 03:44:13 14° NNE 03:45:03 10° NNE visible
06 Dec 4.1 05:26:02 14° NNW 05:26:02 14° NNW 05:28:01 10° N visible
07 Dec 4.8 03:29:38 12° NNE 03:29:38 12° NNE 03:29:57 10° NNE visible
07 Dec 4.2 05:11:27 13° NNW 05:11:27 13° NNW 05:12:57 10° N visible
08 Dec 4.3 04:56:50 13° N 04:56:50 13° N 04:57:54 10° N visible
09 Dec 4.4 04:42:11 12° N 04:42:11 12° N 04:42:50 10° N visible
10 Dec 4.6 04:27:31 11° N 04:27:31 11° N 04:27:46 10° N visible
